sat.trackr.live / text

‹ back to catalog

STARLINK-34829

NORAD 65470 · 2025-195N

PAYLOAD ACTIVE UNKNOWN

§ Identity

Operator
Country
US
Launch date
2025-09-03
Launch site
AFETR
Launch vehicle
Mass (kg)
RCS (m²)

Purposes: comms

External: N2YO · Heavens-Above · Gunter

§ Orbital elements

Epoch: 2026-05-24T14:46:12.694944Z

Period
94.01 min
Inclination
53.1561°
Eccentricity
0.0001937
Mean motion
15.31723481 rev/d
Perigee alt
469.3 km
Apogee alt
472.0 km
Semi-major
6,848.8 km
B*
7.1561e-4
RAAN
265.1313°
Arg perigee
91.4077°
Mean anomaly
268.7147°
Rev number
4,162

§ Raw data

STARLINK-348291 65470U 25195N   26144.61542471  .00021923  00000+0  71561-3 0  99902 65470  53.1561 265.1313 0001937  91.4077 268.7147 15.31723481 41627

JSON: /api/v1/satellites/65470 · /tle

For live sub-satellite position, see the globe view (requires WebGL).

§ Visibility from observer

Set your observer location to see the next 7 days of passes ≥ 10°. The values pass through the URL so the page stays shareable.

No JS? Fill the form by hand. The geolocation button needs JavaScript.